Regional Weather Roundup
Issued by NWS Grand Forks, ND

Home | Current Version | Previous Version | Text Only | Print | Product List | Glossary Off
Versions: 1 2 3 4 5 6 7 8 9 10 11 12 13 14 15 16 17 18 19 20 21 22 23 24 25 26 27 28 29 30 31 32 33 34 35 36 37 38 39 40 41 42 43 44 45 46 47 48 49 50

000
ASUS43 KFGF 050310
RWRFGF
PRAIRIE TO PINES  WEATHER ROUNDUP
NATIONAL WEATHER SERVICE EASTERN NORTH DAKOTA/GRAND FORKS ND
900 PM CST WED MAR 04 2015

 **SATELLITE DATA USED TO AUGMENT SKY COVER AT AUTOMATED STATIONS**
 *****  WEATHER ACROSS EASTERN NORTH DAKOTA  *****

CITY           SKY/WX    TMP DP  RH WIND       PRES   REMARKS
GRAND FORKS    CLEAR     -9 -15  75 W6        30.39R WCI -22
GRAND FRKS AFB CLEAR     -8 -15  69 NW6       30.38R WCI -21
GRAND FRKS NWS   N/A     -6 N/A N/A NW5         N/A  WCI -17
DEVILS LAKE    CLEAR     -8 -17  65 W6        30.32S WCI -21
FARGO          FAIR      -3 -11  68 W8        30.40S WCI -18
WAHPETON ARPT  NOT AVBL
$$

 ***** WEATHER ACROSS CENTRAL AND WESTERN NORTH DAKOTA  *****

CITY           SKY/WX    TMP DP  RH WIND       PRES   REMARKS
BISMARCK       CLEAR     -4 -10  75 E5        30.34F WCI -15
MINOT          PTCLDY    -5 -14  65 SW6       30.29F WCI -18
JAMESTOWN      NOT AVBL
MINOT AFB      PTCLDY   -12 -17  75 SW2       30.29F
GARRISON         N/A     -7 -14  71 CALM      30.28F
WILLISTON        N/A    N/A N/A N/A MISG      30.23F
DICKINSON      CLEAR     -1 -10  65 S6        30.18F WCI -13
HETTINGER      CLEAR     -1 -11  62 SE5       30.22S WCI -11
$$

 *****  OTHER AIRPORT OBSERVATIONS IN OUR AREA  *****

CITY           SKY/WX    TMP DP  RH WIND       PRES   REMARKS
WALHALLA       NOT AVBL
GRAFTON AIRPOR NOT AVBL
VALLEY CITY AR FAIR      -6 -11  77 NW7       30.35S WCI -20
CANDO          NOT AVBL
CAVALIER APRT  NOT AVBL
GWINNER        CLEAR     -2 N/A N/A W7        30.39S WCI -16
SHEYENNE NWR     N/A     -5 -13  69 NW6       29.95S WCI -18
ROLLA          NOT AVBL
 ***** THE ABOVE OBSERVATIONS ARE NON NWS ARE NOT QUALITY
       CONTROLLED AND MAY MIS-REPORT RAIN FOR SNOW...
$$

  *****  WEATHER ACROSS NORTHERN MINNESOTA  *****

CITY           SKY/WX    TMP DP  RH WIND       PRES   REMARKS
FLAG ISLAND    CLEAR     -6 -15  65 W9        30.28R WCI -22
WARROAD        CLEAR     -8 -15  71 W8        30.30S WCI -23
ROSEAU         CLEAR     -6 -13  71 W6        30.32R WCI -18
HALLOCK        NOT AVBL
THF RVR FALLS  CLEAR     -8 -11  84 W6        30.33S WCI -21
BAUDETTE       CLEAR     -8 -16  67 W8        30.27R WCI -24
WASKISH        CLEAR     -8 -13  77 W6        30.30R WCI -21
CROOKSTON      CLEAR     -8 -13  77 NW6       30.39S WCI -21
$$
  *****  WEATHER ACROSS CENTRAL AND WEST MINNESOTA  *****

CITY           SKY/WX    TMP DP  RH WIND       PRES   REMARKS
FOSSTON        CLEAR    -11 -17  77 W3        30.33R
BEMIDJI        CLEAR     -9 -15  75 W6        30.29S WCI -23
PARK RAPIDS    CLEAR     -8 -14  74 NW5       30.29R WCI -19
ELBOW LAKE     FAIR      -6 -11  80 NW5       30.36R WCI -17
WADENA         CLEAR     -8 -11  84 NW5       30.32R WCI -19
DETROIT LAKES  LGT SNOW  -4  -8  84 NW5       30.34R WCI -15
MOORHEAD       CLEAR      0  -8  71 NW9       30.40R WCI -16
FERGUS FALLS   CLEAR     -4 -11  71 NW6       30.41R WCI -16
MORRIS MN      CLEAR     -8 -13  77 W8        30.38R WCI -23
STAPLES        FAIR      -9 -17  70 W3        30.32R
$$
  *****  WEATHER ELSEWHERE ACROSS MINNESOTA  *****

CITY           SKY/WX    TMP DP  RH WIND       PRES   REMARKS
DULUTH         FAIR      -4 -16  56 NW9       30.23R WCI -20
INTRNTL FALLS  CLEAR     -7 -16  65 W7        30.26R WCI -21
ELY            CLEAR     -8 -17  65 NW6       30.22R WCI -21
CLOQUET        FAIR      -4 -17  54 W8        30.26R WCI -19
WHEATON        CLEAR     -6 -11  77 W6        30.42R WCI -18
BRAINERD       CLEAR     -5 -15  62 NW7       30.32R WCI -19
HIBBING        FAIR      -6 -16  61 W7        30.25R WCI -20
ALEXANDRIA     FAIR      -8 -13  78 NW6       30.33R WCI -21
SAINT CLOUD    CLEAR     -3 -13  62 W8        30.35R WCI -18
MINNEAPOLIS    CLEAR      1 -13  51 NW9       30.39R WCI -14
$$

  *****  WEATHER ACROSS SOUTH DAKOTA  *****

CITY           SKY/WX    TMP DP  RH WIND       PRES   REMARKS
SIOUX FALLS    CLEAR      0  -7  72 NW5       30.41R WCI -10
BROOKINGS      NOT AVBL
WATERTOWN      CLEAR     -7 -14  71 W6        30.35R WCI -20
HURON          CLEAR     -4 -12  68 N3        30.43R
SISSETON         N/A     -5 -13  68 NW6       30.40R WCI -18
ABERDEEN       CLEAR     -4 -14  62 NW3       30.41S
MITCHELL       CLEAR     -1  -8  72 N6        30.44R WCI -13
PIERRE         CLEAR      2 -10  57 NE5       30.36R WCI  -8
MOBRIDGE       CLEAR     -1 -10  65 E3        30.32R
RAPID CITY     CLEAR      3  -4  72 CALM      30.23R
$$

  *****  SOME WEATHER IN NEARBY STATES *****

CITY           SKY/WX    TMP DP  RH WIND       PRES   REMARKS
GLASGOW MT     CLEAR     10  -1  61 E13       30.12F WCI  -5
GREAT FALLS MT CLEAR     28  12  51 SW14      30.00R WCI  17
CHEYENNE WY    CLEAR      8  -3  61 SW10      30.11R WCI  -6
SCOTTSBLUFF NE CLEAR     16   4  59 W5        30.22R WCI   9
OMAHA NE       CLEAR     15   0  51 N12       30.44R WCI   2
DES MOINES IA  PTCLDY    16   3  56 N12       30.41R WCI   3
DAVENPORT IA   PTCLDY     9  -1  64 NW7       30.36F WCI  -2
CHICAGO IL     MOCLDY    15   0  51 W13       30.32R WCI   1
EAU CLAIRE WI  MOCLDY     0 -13  54 W6        30.35R WCI -12
LA CROSSE WI   PTCLDY     9  -4  55 W12       30.35R WCI  -6
$$

  *****  SOME NATIONAL WEATHER *****

CITY           SKY/WX    TMP DP  RH WIND       PRES   REMARKS
LA GUARDIA NY  LGT RAIN  43  39  86 SW8       29.91R FOG
RALEIGH NC     MOCLDY    66  53  63 S14       29.88F
ATLANTA GA     MOCLDY    68  61  78 S12       29.93S
NEW ORLEANS LA PTCLDY    72  68  87 S8        29.93R
OKLAHOMA CITY  LGT SNOW  24  19  81 NE13G23   30.34R VSB 3/4 WCI  12
ALBUQUERQUE NM PTCLDY    40  14  34 N18G26    30.13R
SALT LAKE CITY CLEAR     33  21  61 VRB3      30.29R
LOS ANGELES CA PTCLDY    60  50  69 W12       30.11R
BOISE ID       CLEAR     38  11  32 CALM      30.28R
SEATTLE WA     MOCLDY    46  22  38 N8        30.28R
$$

*** WEATHER ACROSS MANITOBA...SASKATCHEWAN AND ONTARIO ***
                ***ONTARIO***

CITY           SKY/WX    TMP DP  RH WIND       PRES   REMARKS
GERALDTON      CLEAR    -13 -18  77 SW6       30.10R WCI -27
THUNDER BAY    CLEAR    -11 -18  70 SW6       30.26R WCI -25
SIOUX LOOKOUT  CLEAR    -11 -18  70 SW3       30.17R
TORONTO        CLOUDY    19  12  73 N20       30.02R WCI   4
BIG TROUT LK   MOCLDY    -8 -13  77 W7        30.04R WCI -22
PICKLE LAKE    NOT AVBL
DRYDEN         CLEAR     -6 -17  59 W8        30.18R WCI -21
KENORA         CLEAR     -8 -17  65 W6        30.23R WCI -21
$$
                *** MANITOBA***

CITY           SKY/WX    TMP DP  RH WIND       PRES   REMARKS
BRANDON        CLEAR    -11 -18  70 W13       30.28F WCI -32
DAUPHIN        CLEAR     -6 -17  59 W10G17    30.26S WCI -23
ISLAND LAKE    CLEAR     -6 -17  59 W9        30.11S WCI -22
PILOT MOUND      N/A    -15 -20  76 SW7         N/A  WCI -31
THE PAS        CLEAR     -6 -17  59 SW9       30.14F WCI -22
THOMPSON       CLEAR    -13 -20  70 CALM      30.05S
WINNIPEG       CLEAR     -6 -15  65 SW9       30.33S WCI -22
LYNN LAKE      CLEAR    -13 -20  70 SW6       29.98F WCI -27
CHURCHILL      CRYSTALS -20 -27  69 W9        29.99F WCI -40
GILLAM         CLEAR    -11 -20  64 W6        30.03F WCI -25
$$
                ***SASKATCHEWAN***

CITY           SKY/WX    TMP DP  RH WIND       PRES   REMARKS
ESTEVAN        CLEAR    -15 -20  76 SE6       30.22F WCI -29
KINDERSLEY     MOCLDY     7  -2  66 S10       30.00S WCI  -8
LLOYDMINSTER   MOCLDY     5  -2  72 S9        29.94S WCI  -9
PRINCE ALBERT  MOCLDY    -8 -17  65 SW6       30.12F WCI -21
REGINA         PTCLDY   -11 -18  70 SE13      30.17F WCI -32
YORKTON        CLEAR     -9 -18  64 SW9       30.21S WCI -27
N. BATTLEFORD  MOCLDY    -4 -11  71 SE10      30.07F WCI -21
LA RONGE       PTCLDY    -9 -17  70 S6        30.01F WCI -23
SASKATOON      PTCLDY    -6 -15  65 S9        30.13F WCI -22
SWIFT CURRENT  CLEAR      1  -6  71 S10       29.99F WCI -14
$$
NOTE: THESE ARE AUTOMATED STATIONS WITH LIMITED QUALITY CONTROL
      "FAIR" INDICATES FEW OR NO CLOUDS BELOW 12,000 FEET WITH NO
      SIGNIFICANT WEATHER AND/OR OBSTRUCTIONS TO VISIBILITY.
      SKY/WX - SKY CONDITION AND SIGNIFICANT WEATHER.
      TMP - AIR TEMPERATURE.    DP   - DEWPOINT TEMPERATURE.
      RH  - RELATIVE HUMIDITY.  PRES - PRESSURE.
      HX  - HEAT INDEX.         WCI  - WIND CHILL INDEX.
$



USA.gov is the U.S. government's official web portal to all federal, state and local government web resources and services.